Date String (YYYY-MM-DD hh:mm:ss) UTC,Instrument flags,Ambient pressure (hPa),Sample flow (lpm),Bypass flow (lpm),Sample temperature (°C),Ambient temperature (°C),ASC tube jacket temperature (°C),LED temperature (°C),Box temperature (°C),Sample RH (%),Span deviation,Mass concentration (μg/m³),Mass concentration (μg/m³),Mass concentration (μg/m³)
DateTimeUTC,F1_M11,P_M11,Q1_M11,Q2_M11,T1_M11,T2_M11,T3_M11,T4_M11,T5_M11,U1_M11,ZSPAN_M11,X0_M11,X2_M11,X1_M11
2022-01-16 12:00:00,,0824.9,4.99,0.00,22.6,21.9,00.0,31.6,24.3,05.8,0000.0,0006.62,0003.64,0003.45
2022-01-16 12:01:00,,0824.9,5.01,0.00,22.6,21.9,00.0,31.6,24.3,05.7,0000.0,0006.72,0003.64,0003.43
2022-01-16 12:02:00,,0824.9,4.99,0.00,22.6,21.9,00.0,31.6,24.3,05.6,0000.0,0006.50,0003.62,0003.41
2022-01-16 12:03:00,,0824.9,5.01,0.00,22.5,21.9,00.0,31.5,24.3,05.6,0000.0,0005.93,0003.56,0003.37
2022-01-16 12:04:00,,0824.9,4.98,0.00,22.5,21.8,00.0,31.5,24.3,05.7,0000.0,0005.69,0003.51,0003.36
2022-01-16 12:05:00,,0824.9,5.02,0.00,22.5,21.8,00.0,31.5,24.3,05.7,0000.0,0005.62,0003.50,0003.35
2022-01-16 12:06:00,,0825.0,4.99,0.00,22.5,21.8,00.0,31.5,24.3,05.6,0000.0,0005.57,0003.48,0003.34
2022-01-16 12:07:00,,0825.0,5.01,0.00,22.5,21.8,00.0,31.5,24.3,05.5,0000.0,0005.52,0003.48,0003.34
2022-01-16 12:08:00,,0825.0,5.00,0.00,22.5,21.8,00.0,31.5,24.3,05.7,0000.0,0005.64,0003.53,0003.37
2022-01-16 12:09:00,,0825.0,4.99,0.00,22.5,21.8,00.0,31.5,24.2,06.2,0000.0,0005.76,0003.57,0003.40
2022-01-16 12:10:00,,0825.1,5.00,0.00,22.5,21.8,00.0,31.5,24.2,05.8,0000.0,0005.11,0003.57,0003.40
2022-01-16 12:11:00,,0825.1,4.99,0.00,22.5,21.8,00.0,31.5,24.2,05.6,0000.0,0005.92,0003.55,0003.39
2022-01-16 12:12:00,,0825.1,5.01,0.00,22.5,21.8,00.0,31.5,24.2,05.6,0000.0,0006.10,0003.55,0003.40
2022-01-16 12:13:00,,0825.1,5.00,0.00,22.5,21.7,00.0,31.5,24.2,05.6,0000.0,0006.05,0003.55,0003.41
2022-01-16 12:14:00,,0825.1,5.00,0.00,22.4,21.7,00.0,31.5,24.2,05.6,0000.0,0006.15,0003.57,0003.41
2022-01-16 12:15:00,,0825.1,4.99,0.00,22.4,21.7,00.0,31.5,24.1,05.6,0000.0,0006.18,0003.57,0003.41
2022-01-16 12:16:00,,0825.0,5.01,0.00,22.4,21.7,00.0,31.5,24.2,05.6,0000.0,0007.02,0003.56,0003.39
2022-01-16 12:17:00,,0824.9,4.99,0.00,22.4,21.7,00.0,31.5,24.1,05.5,0000.0,0007.44,0003.56,0003.38
2022-01-16 12:18:00,,0824.9,5.00,0.00,22.4,21.7,00.0,31.5,24.2,05.5,0000.0,0007.51,0003.58,0003.39
2022-01-16 12:19:00,,0824.9,5.00,0.00,22.4,21.7,00.0,31.5,24.2,05.5,0000.0,0007.53,0003.58,0003.39
2022-01-16 12:20:00,,0824.9,5.00,0.00,22.4,21.7,00.0,31.5,24.2,05.5,0000.0,0007.46,0003.56,0003.38
2022-01-16 12:21:00,,0824.9,5.00,0.00,22.4,21.7,00.0,31.5,24.2,05.5,0000.0,0007.57,0003.58,0003.38
2022-01-16 12:22:00,,0824.9,5.01,0.00,22.4,21.7,00.0,31.4,24.2,05.5,0000.0,0006.98,0003.59,0003.39
2022-01-16 12:23:00,,0824.9,4.99,0.00,22.4,21.7,00.0,31.4,24.1,05.5,0000.0,0006.67,0003.59,0003.38
2022-01-16 12:24:00,,0824.9,5.01,0.00,22.4,21.7,00.0,31.4,24.1,05.5,0000.0,0006.87,0003.58,0003.38
2022-01-16 12:25:00,,0824.9,5.00,0.00,22.4,21.7,00.0,31.4,24.1,05.4,0000.0,0007.44,0003.59,0003.38
2022-01-16 12:26:00,,0824.9,5.00,0.00,22.4,21.6,00.0,31.4,24.1,05.5,0000.0,0007.48,0003.59,0003.36
2022-01-16 12:27:00,,0824.9,5.00,0.00,22.4,21.6,00.0,31.4,24.1,05.4,0000.0,0006.91,0003.60,0003.37
2022-01-16 12:28:00,,0824.9,4.99,0.00,22.4,21.6,00.0,31.4,24.2,05.4,0000.0,0006.30,0003.59,0003.36
2022-01-16 12:29:00,,0824.9,5.02,0.00,22.4,21.6,00.0,31.4,24.1,05.4,0000.0,0006.13,0003.55,0003.34
2022-01-16 12:30:00,,0825.0,4.99,0.00,22.4,21.6,00.0,31.4,24.1,05.4,0000.0,0006.09,0003.51,0003.32
2022-01-16 12:31:00,,0825.0,5.01,0.00,22.4,21.6,00.0,31.4,24.1,05.3,0000.0,0006.05,0003.50,0003.31
2022-01-16 12:32:00,,0825.0,5.00,0.00,22.4,21.7,00.0,31.4,24.1,05.3,0000.0,0005.85,0003.47,0003.29
2022-01-16 12:33:00,,0825.0,5.00,0.00,22.4,22.3,00.0,31.4,24.3,05.3,0000.0,0005.70,0003.43,0003.28
2022-01-16 12:34:00,,0825.1,5.01,0.00,22.6,23.0,00.0,31.4,24.5,05.3,0000.0,0005.64,0003.41,0003.27
2022-01-16 12:35:00,,0825.1,5.00,0.00,22.7,23.1,00.0,31.5,24.6,05.3,0000.0,0005.48,0003.39,0003.25
2022-01-16 12:36:00,,0825.0,5.00,0.00,22.7,22.9,00.0,31.5,24.6,05.3,0000.0,0004.67,0003.37,0003.23
2022-01-16 12:37:00,,0825.0,5.00,0.00,22.7,22.7,00.0,31.5,24.6,05.2,0000.0,0005.24,0003.34,0003.23
2022-01-16 12:38:00,,0825.0,4.99,0.00,22.7,22.6,00.0,31.5,24.6,05.2,0000.0,0005.50,0003.31,0003.21
2022-01-16 12:39:00,,0824.9,5.01,0.00,22.7,22.5,00.0,31.5,24.5,05.1,0000.0,0005.59,0003.31,0003.20
2022-01-16 12:40:00,,0825.0,5.01,0.00,22.7,22.4,00.0,31.6,24.5,05.1,0000.0,0005.64,0003.31,0003.19
2022-01-16 12:41:00,,0825.1,5.00,0.00,22.7,22.3,00.0,31.6,24.5,05.1,0000.0,0005.56,0003.30,0003.17
2022-01-16 12:42:00,,0825.0,5.02,0.00,22.7,22.2,00.0,31.6,24.5,05.0,0000.0,0005.54,0003.28,0003.15
2022-01-16 12:43:00,,0825.1,5.00,0.00,22.7,22.2,00.0,31.6,24.4,05.0,0000.0,0005.44,0003.25,0003.12
2022-01-16 12:44:00,,0825.1,4.99,0.00,22.6,22.1,00.0,31.6,24.4,05.0,0000.0,0005.47,0003.24,0003.09
2022-01-16 12:45:00,,0825.1,5.01,0.00,22.6,22.1,00.0,31.6,24.4,05.1,0000.0,0005.45,0003.23,0003.05
2022-01-16 12:46:00,,0825.1,5.00,0.00,22.6,22.0,00.0,31.6,24.4,05.1,0000.0,0005.55,0003.22,0003.01
2022-01-16 12:47:00,,0825.1,4.99,0.00,22.6,22.0,00.0,31.6,24.4,05.1,0000.0,0005.50,0003.19,0002.97
2022-01-16 12:48:00,,0825.1,5.01,0.00,22.6,22.0,00.0,31.6,24.3,05.1,0000.0,0004.90,0003.15,0002.92
2022-01-16 12:49:00,,0825.2,4.99,0.00,22.6,21.9,00.0,31.6,24.3,05.1,0000.0,0004.23,0003.14,0002.87
2022-01-16 12:50:00,,0825.2,5.00,0.00,22.6,21.9,00.0,31.6,24.3,05.1,0000.0,0003.92,0003.07,0002.82
2022-01-16 12:51:00,,0825.1,5.01,0.00,22.6,21.9,00.0,31.6,24.3,05.1,0000.0,0003.84,0002.99,0002.77
2022-01-16 12:52:00,,0825.1,4.99,0.00,22.5,21.8,00.0,31.6,24.3,05.1,0000.0,0003.89,0002.96,0002.74
2022-01-16 12:53:00,,0825.1,5.00,0.00,22.5,21.8,00.0,31.6,24.3,05.1,0000.0,0003.85,0002.96,0002.73
2022-01-16 12:54:00,,0825.1,4.99,0.00,22.5,21.8,00.0,31.6,24.2,05.1,0000.0,0003.86,0002.96,0002.72
2022-01-16 12:55:00,,0825.1,5.02,0.00,22.5,21.8,00.0,31.6,24.2,05.1,0000.0,0003.78,0002.92,0002.69
2022-01-16 12:56:00,,0825.1,4.99,0.00,22.5,21.8,00.0,31.5,24.2,05.1,0000.0,0003.73,0002.89,0002.66
2022-01-16 12:57:00,,0825.1,5.00,0.00,22.5,21.8,00.0,31.5,24.2,05.1,0000.0,0003.57,0002.86,0002.66
2022-01-16 12:58:00,,0825.1,5.01,0.00,22.5,21.8,00.0,31.5,24.2,05.1,0000.0,0003.60,0002.87,0002.67
2022-01-16 12:59:00,,0825.1,4.99,0.00,22.5,21.8,00.0,31.5,24.2,05.1,0000.0,0003.62,0002.89,0002.68
